Find Starlink 30999

NORAD ID: 58551 Int'l Des: 2023-192 Owner: SPXS Country: US Constellation: starlink operational
LEOCIRCULAR

实时位置

正在加载3D地球...

关于 Starlink 30999

正在加载描述...

即将过境

Passes for default location (London). Set your location on the main map for personalized predictions.

高度历史

Loading altitude history...

两行轨道根数

1 58551U 23192W 26126.75189462 -.00015374 00000-0 -50716-3 0 9994
2 58551 53.1601 143.0778 0001154 83.8669 276.2463 15.30252937135010
Epoch: May 6, 2026 • Age: 7 hours

当前状态

高度 480.1 km
速度 7.63 km/s
星下点 -17.07°S, 92.15°E
发射日期 Dec 8, 2023
运行时间 2.4 years
类型 internet

技术详情

分类 Payload
质量 730.00 kg
干质量 700.00 kg
总质量 730.00 kg
长度 0.30 m
直径 4.10 m
跨度 29.00 m
形状 Box + pan
制造商 SPXS
平台类型 Starlink V2M
阶段状态 In Orbit
所有者/国家 SPXS/US

Most Searched